STARLINK-2220, 48570

Orbit data source: Space-Track

STARLINK-2220, 48570 is a payload satellite owned by SpaceX/Seattle (US) in LEO that was launched on Sat, 15 May 2021 UTC via an FALCON 9 launch vehicle from the Air Force Eastern Test Range (AFETR). Payload-class satellites include a variety of spacecraft equipped with specific instruments for various scientific and technological missions. These include communications satellites like Starlink; space stations such as the ISS; scientific satellites like the Hubble; Earth observation satellites from companies like Planet Labs, Umbra, and HawkEye 360; GPS; miniature CubeSats for education and research; and military/defense satellites.

Loading next visibility...
Identifier
48570, 2021-041T
Orbit
LEO
Country
Flag of USUS
Related business
Manufacturer
SpaceX/Seattle
Mission
Operational Commercial Communications
Bus & Motor
STARLINK, Unknown motor
Mass
260 kg wet, ~248 kg dry
Launch date (UTC)
2021-05-15 (5 years ago)
Launch vehicle
FALCON 9
Launch site
Air Force Eastern Test Range (AFETR)
Object type
Payload
Rocket body
Debris
Shape & HBR
Box + 1 Pan, 10.1 m
Radar Cross Section
13.562 m², Large (>1 m²)

Expand to show TLE details & history
Last TLE update: 23 hours ago

TLE from 23 hours ago
0 STARLINK-2220
1 48570U 21041T   25349.82265837  .00005359  00000-0  37864-3 0  9999
2 48570  53.0540 158.1097 0001393  87.9255 272.1894 15.06374079252415
Epoch: 2025-12-15T19:44Z
TLE epoch observation values (Epoch: 2025-12-15T19:44:37.683Z)
Latitude
0.00004°
Longitude
137.23701°
Altitude
548.133 km
Speed
7.589 km/s
True Right ascension
10h 32m 26s
True Declination
0° 00' 00"
Sunlit
Object was in daylight at epoch
Visualization orbit readout
Latitude
Unknown
Longitude
Unknown
Altitude
Unknown
Speed
Unknown
Apparent Right ascension
Unknown
Apparent Declination
Unknown
Sunlit
N/A
Visualization observer readout
Local Sidereal Time
17:48:08
Azimuth
Unknown
Elevation
Unknown
Doppler factor
Unknown
Orbital elements
Apogee altitude
548.527 km
Perigee altitude
546.597 km
Semi-major axis
6,925.699 km
Eccentricity
0.00014
Inclination
53.054°
RAAN
158.1097°
Arg. of periapsis
87.9255°
True anomaly
272.17345°
Mean anomaly
272.1894°
Eccentric anomaly
272.18142°
Mean motion
3.76572 °/min
Orbital period
95.6 mins
BSTAR
0.00037864
Loading maneuver chart data...
Computing Atmospheric mass density...

Documentation

Showing up to 5 results
|